Wind_Speed
20 17 18 19 21 22 24 25 25 25 26 27 27 26 27 29 31 33 30 26 27 28 29 30 30 28 22 17 19 21 25 28 29 28 27 27 28 28 27 25 24 24 24 23 21 20 18 16 15 16 15 16 17 14 12 10 6 6 7 5 6 8 11 12 12 11 11 10 10 10 11 11 11 12 12 11 9 8 5 5 4 5 6 8 10
22 21 20 21 22 22 23 24 24 24 26 27 27 27 28 30 33 36 32 27 28 29 30 32 34 36 33 24 18 20 23 26 30 30 29 28 28 29 29 28 27 26 27 26 24 22 20 19 17 17 17 19 19 16 14 13 9 8 8 6 6 7 10 12 13 12 12 12 11 11 12 12 12 13 13 13 11 9 6 4 3 3 4 5 8
21 21 21 21 22 23 23 24 25 25 26 27 28 28 29 31 33 37 35 30 30 31 32 34 36 38 40 38 27 19 21 24 28 31 32 31 30 29 29 30 30 29 29 29 28 25 21 20 19 19 19 20 20 19 18 15 13 11 9 8 8 7 8 11 13 14 13 13 13 13 12 13 13 13 14 14 13 12 9 6 4 3 4 4 6
21 21 21 21 22 23 23 24 25 25 26 27 28 29 30 32 33 36 36 32 31 32 33 35 37 39 41 42 39 28 19 22 26 29 32 33 32 31 31 31 31 31 31 31 30 29 25 22 21 21 22 22 22 23 21 18 17 16 13 12 13 10 8 9 12 15 15 14 14 14 14 14 14 14 15 15 15 14 12 9 7 5 4 4 5
21 21 21 21 22 22 23 24 25 25 26 27 29 30 31 32 33 34 36 35 32 31 32 33 36 38 41 42 43 39 28 19 22 26 30 33 34 34 33 32 32 32 33 34 33 32 30 27 25 24 25 26 24 24 23 21 21 20 17 17 17 14 11 9 10 14 16 16 16 15 15 15 15 15 15 16 16 16 15 13 10 7 5 4 4
21 21 22 22 22 23 24 24 25 25 26 28 29 30 31 31 32 33 34 35 34 32 31 31 33 35 38 41 43 43 38 28 19 21 26 31 35 36 35 34 34 34 35 35 35 34 33 32 29 27 27 28 27 26 26 25 24 23 20 19 19 17 14 11 10 12 15 17 18 17 16 16 16 16 16 17 17 17 16 15 13 10 7 5 4
21 22 23 23 24 24 25 25 25 25 26 27 28 29 30 31 32 31 32 33 34 34 33 32 32 33 35 38 40 42 42 38 29 20 19 26 32 36 37 37 36 37 37 37 37 36 35 34 33 32 30 29 28 28 28 28 28 25 23 22 20 20 17 13 11 10 13 16 19 19 18 18 17 17 18 18 18 18 17 16 15 12 9 7 5
22 23 24 25 25 25 25 25 25 26 26 27 28 29 30 31 31 31 30 30 31 33 34 34 34 34 35 35 37 39 40 41 39 31 21 18 25 32 36 38 38 38 39 40 39 38 37 36 36 36 34 31 30 29 28 29 29 28 26 24 22 22 18 15 12 11 11 14 18 20 21 20 19 19 19 19 19 19 19 17 16 14 12 10 8
23 24 25 25 26 26 26 26 26 27 27 27 28 29 30 31 31 30 29 29 30 31 32 34 35 36 37 37 38 38 38 39 40 38 33 24 16 22 31 37 40 40 40 40 41 40 39 38 38 38 38 36 34 32 30 30 30 28 27 25 23 22 19 14 12 11 11 12 16 20 22 23 22 21 20 20 21 21 21 20 18 16 14 12 10
24 25 25 26 26 27 27 27 27 28 28 28 29 30 30 31 31 30 29 29 29 30 31 32 34 36 37 39 40 39 38 37 37 37 37 35 27 17 20 29 37 41 41 41 41 42 41 40 40 40 40 40 38 36 34 32 31 28 27 26 23 21 18 14 13 14 16 16 18 21 24 25 25 24 23 23 23 23 23 22 20 18 16 15 13
25 25 26 26 27 27 28 28 28 29 29 29 30 30 31 31 32 30 28 28 29 30 31 31 32 34 36 38 39 40 39 37 36 37 36 37 35 29 19 18 27 36 41 43 43 43 43 42 42 41 41 41 40 39 36 35 33 30 27 26 22 20 19 18 18 21 23 24 24 24 25 26 27 27 26 25 25 25 24 24 22 20 19 18 15
26 26 27 27 28 28 28 29 29 30 30 30 31 31 32 32 32 31 28 27 29 30 32 32 31 32 34 37 38 39 39 38 37 38 37 36 36 34 29 21 17 25 34 41 44 45 44 44 44 43 42 42 42 41 39 37 36 33 30 27 22 21 23 25 28 30 31 31 29 26 23 23 26 29 28 27 27 26 26 25 24 22 21 20 18
26 27 28 28 29 29 29 29 30 30 31 31 32 32 32 32 32 32 28 27 29 30 32 32 31 31 32 34 37 38 39 39 39 40 40 38 36 35 33 29 23 17 23 33 41 45 46 46 46 45 45 44 43 42 41 40 40 38 34 31 28 27 29 32 35 36 36 34 31 27 25 24 25 28 30 29 28 27 27 27 26 24 22 21 20
28 28 29 29 29 29 29 30 30 31 31 32 32 32 33 33 33 32 29 26 28 30 31 32 32 32 32 32 34 37 39 39 39 41 41 41 39 37 35 33 29 24 18 22 31 39 45 47 47 47 46 46 45 44 43 43 43 42 39 37 35 35 35 35 37 37 37 36 33 30 29 28 26 26 29 30 30 29 28 28 27 26 24 22 21
29 30 30 30 29 29 29 30 30 31 31 32 32 33 33 34 34 32 29 25 27 30 30 30 31 32 32 33 33 35 37 39 39 41 42 43 42 39 38 36 33 29 25 19 20 30 39 45 47 48 48 47 47 47 47 46 44 45 43 41 40 39 39 38 37 38 39 38 36 34 32 31 28 27 28 30 31 31 30 29 28 27 26 25 23
30 31 31 30 29 30 30 29 30 31 31 32 33 33 34 34 34 32 28 25 26 29 28 28 30 31 32 33 33 34 36 38 39 40 42 44 44 43 42 40 37 33 30 26 20 19 28 38 44 47 49 49 49 49 49 49 47 46 45 45 44 42 42 42 41 39 40 40 39 38 36 33 32 30 29 30 32 33 32 31 30 29 28 27 25
31 32 31 30 30 31 31 30 30 32 32 33 34 34 34 34 34 31 28 24 25 27 27 28 29 30 31 32 33 34 35 37 38 39 40 42 45 47 47 45 42 39 34 30 26 21 17 25 36 43 47 49 49 50 50 50 50 49 48 48 48 47 45 45 44 42 41 41 41 41 39 36 34 33 32 31 31 33 34 33 32 31 29 28 27
31 32 32 31 30 32 32 31 31 33 34 34 34 34 34 33 32 29 27 25 25 27 28 28 29 30 31 33 34 34 34 35 37 39 39 41 44 47 49 49 48 45 40 34 29 26 21 16 21 32 42 48 49 50 51 51 52 52 51 50 51 51 50 48 47 46 44 42 41 41 41 39 36 36 36 34 32 32 35 36 35 33 32 30 28
31 32 32 31 30 32 33 32 33 35 35 35 35 33 33 32 29 26 26 27 28 28 29 30 31 31 32 35 37 36 35 35 36 39 40 41 43 45 48 50 50 50 48 42 35 29 25 21 16 17 28 40 48 50 52 53 53 54 54 54 54 54 54 53 51 50 48 46 43 41 42 41 40 41 41 39 35 33 34 36 37 35 34 32 31
32 33 33 32 32 34 34 34 34 35 35 34 32 31 31 30 28 26 26 29 31 31 32 33 33 33 34 37 38 39 37 36 36 39 41 42 42 44 47 49 50 51 51 50 45 37 30 25 22 18 16 24 38 48 52 54 55 56 56 57 57 57 57 56 55 54 52 52 49 46 44 43 43 44 44 42 38 35 33 34 37 37 35 34 33
33 34 35 34 34 35 36 36 35 34 32 31 29 28 28 28 28 27 29 31 33 34 34 35 35 35 36 38 40 39 38 37 36 38 41 43 44 45 46 48 49 50 52 53 52 48 40 33 28 24 21 18 23 36 48 54 56 57 58 59 60 60 60 59 58 57 56 55 54 51 49 47 47 46 44 43 41 38 34 33 34 36 37 36 36
35 36 37 37 37 37 37 36 35 31 28 25 24 26 27 28 29 30 31 33 34 35 37 37 36 36 37 39 40 40 39 38 38 39 40 43 45 46 46 46 48 50 51 53 54 53 49 44 39 34 31 28 24 24 35 48 55 59 59 60 61 62 63 62 61 59 59 58 56 55 54 52 51 49 46 44 44 42 37 33 32 36 40 41 40
37 38 39 39 39 37 35 34 31 28 24 22 24 26 28 30 31 32 34 36 36 36 38 38 37 37 37 38 40 41 41 40 40 40 41 43 46 47 46 46 47 48 50 52 53 54 53 51 49 46 43 38 34 29 28 36 48 57 61 62 63 64 65 66 64 62 61 61 59 58 57 56 55 54 49 45 45 45 43 38 35 36 40 42 42
39 40 40 41 38 33 31 31 30 27 25 25 28 31 32 32 33 35 36 36 37 38 38 38 38 38 38 39 41 42 42 42 41 42 42 43 46 48 48 48 49 49 50 52 53 53 54 54 54 55 53 47 41 37 32 32 38 49 60 64 65 65 66 67 68 66 64 64 63 61 60 60 59 58 55 49 46 47 47 45 40 37 38 40 41
40 41 42 40 34 29 29 31 31 30 29 30 32 35 37 37 37 37 36 37 38 39 39 39 39 40 41 41 43 44 44 44 43 43 42 43 46 49 49 49 50 51 53 54 54 54 54 56 57 58 58 54 47 41 37 34 35 41 52 62 66 68 68 68 69 69 68 66 66 65 63 63 62 62 60 55 51 49 49 48 45 42 40 39 40
41 42 42 37 30 28 29 31 31 31 30 32 34 37 40 41 40 37 36 37 39 41 41 41 41 42 43 44 45 46 47 46 45 44 43 43 47 49 50 51 52 53 55 57 57 56 56 58 59 61 61 58 53 46 38 34 35 38 44 56 64 69 70 70 70 71 71 69 68 68 66 65 65 65 64 60 56 53 52 51 49 47 44 41 41
42 43 40 32 27 28 31 32 31 30 32 34 37 40 42 43 41 38 37 38 40 42 41 40 41 43 44 46 46 47 48 47 46 46 44 45 49 50 51 53 54 56 57 59 60 59 59 61 62 63 62 60 57 49 40 33 34 37 40 48 59 66 70 72 72 72 72 72 71 70 69 68 67 67 67 65 62 58 56 54 53 52 50 47 44
44 41 35 28 28 31 32 32 32 32 35 38 40 42 43 43 43 41 41 43 44 44 42 42 42 44 45 46 47 48 48 47 48 48 45 47 50 51 53 55 57 59 60 60 62 61 61 63 65 65 63 61 58 51 41 33 32 36 38 42 51 61 67 72 74 74 74 74 74 73 72 70 70 70 70 69 67 63 60 58 56 55 54 52 49
39 34 30 29 32 33 32 33 34 36 39 42 43 44 44 44 44 44 45 47 47 47 45 45 45 46 47 47 48 48 47 48 49 48 46 49 52 53 54 57 59 61 62 62 63 64 64 65 66 66 64 61 58 50 41 34 31 34 36 38 44 54 62 68 73 76 76 76 76 76 75 74 72 72 72 72 71 68 64 62 60 59 58 56 54
31 29 31 35 37 37 37 37 38 39 41 43 45 45 45 46 46 47 49 50 50 48 48 48 49 49 47 46 47 47 47 49 49 48 49 53 54 54 55 58 61 62 63 64 66 66 67 67 66 65 64 62 58 48 39 34 32 33 36 38 41 48 57 64 70 75 78 78 78 78 78 78 76 74 74 74 74 72 69 66 63 62 62 60 58
30 34 39 42 42 42 42 42 43 43 42 44 46 46 45 47 48 49 51 53 53 51 51 53 53 50 46 45 46 47 47 48 49 51 53 54 54 54 57 59 62 63 64 66 68 69 70 70 68 65 62 62 59 49 38 33 33 34 37 39 41 46 53 60 65 71 76 79 80 80 80 80 80 78 76 76 76 76 74 71 68 66 65 63 61
40 45 46 46 45 43 43 45 45 45 43 45 47 46 45 46 48 50 53 55 55 54 55 56 53 50 46 45 46 47 48 49 52 54 55 55 55 57 59 61 63 64 64 66 69 72 72 72 70 66 63 61 58 50 40 34 32 35 39 42 44 47 51 57 62 67 73 77 80 82 82 82 83 82 80 78 77 78 78 76 73 69 68 67 64
49 51 50 48 47 44 43 45 46 46 47 47 48 46 45 45 47 51 56 57 56 56 56 55 53 51 49 48 48 49 50 52 54 56 56 56 57 59 61 64 64 64 64 67 70 73 74 73 70 69 67 63 58 50 43 38 34 35 39 44 48 50 51 55 60 64 69 74 78 82 83 83 84 84 84 82 79 78 79 80 78 74 71 69 67
52 52 51 49 48 45 45 46 48 49 49 49 47 46 46 47 50 54 57 59 58 57 56 55 54 53 52 50 50 51 53 55 56 56 57 57 58 61 64 65 65 64 65 67 71 74 74 73 71 70 69 68 61 52 45 41 39 38 39 43 48 53 55 55 58 62 66 70 75 79 83 84 85 85 85 85 84 81 79 80 81 79 75 72 71
50 50 49 48 48 47 47 48 50 51 50 49 47 47 49 49 51 55 59 60 60 58 57 57 56 55 53 52 52 54 55 57 58 57 58 58 60 64 66 65 65 66 68 70 72 72 73 73 71 70 70 69 63 54 46 42 41 41 41 42 46 53 57 58 58 61 64 68 71 76 80 84 85 86 86 86 86 85 82 81 82 82 79 76 74
48 49 47 45 46 47 48 50 51 51 51 50 48 49 51 50 52 57 61 61 61 61 60 59 57 55 55 55 55 56 57 58 58 57 57 59 62 65 66 66 68 70 71 71 71 71 71 72 72 71 70 68 62 54 48 43 42 44 43 43 45 50 56 59 60 61 63 66 69 73 77 81 85 86 86 87 87 87 86 83 82 84 83 80 77
49 49 46 45 46 48 49 50 50 51 51 51 52 53 53 52 55 60 62 62 62 62 61 59 58 57 57 57 57 57 57 57 56 57 59 61 64 66 67 69 72 73 73 72 71 71 71 71 73 72 70 64 58 54 50 45 44 45 45 44 44 48 54 58 60 61 63 64 68 71 74 78 82 85 87 87 87 88 89 87 84 84 85 84 81
53 54 53 53 54 54 54 53 53 54 54 56 57 55 52 53 59 62 63 63 63 62 61 60 60 59 58 59 59 58 58 58 59 61 63 64 66 68 70 73 74 73 73 72 72 71 71 71 72 71 67 61 57 55 52 50 48 47 46 45 45 48 51 56 60 62 63 64 66 69 72 75 79 83 86 87 88 88 89 90 88 85 85 86 84
55 57 58 59 60 60 59 59 58 58 59 59 59 57 56 59 63 64 64 64 63 62 62 62 61 60 60 61 61 61 62 64 65 66 67 68 70 71 72 73 73 73 73 73 72 72 72 72 71 68 63 59 57 56 55 54 53 52 49 47 47 48 50 54 59 61 62 64 66 68 70 73 76 79 83 86 88 89 89 91 91 89 87 87 87
53 55 57 58 59 59 59 59 59 59 59 60 60 60 62 64 64 64 63 63 63 63 63 63 63 63 63 64 65 66 68 70 70 70 71 72 73 72 72 72 73 73 73 73 73 73 73 73 70 65 60 58 58 58 57 57 56 55 53 50 48 50 51 53 57 60 61 62 65 67 69 72 74 76 80 84 87 88 89 90 92 92 90 88 88
55 56 57 58 59 59 59 59 60 60 61 62 62 63 64 63 62 62 62 62 63 64 64 65 66 66 67 69 71 72 73 73 73 73 74 74 73 72 74 74 74 73 73 73 74 74 74 72 68 63 60 59 60 59 60 60 58 57 57 54 50 50 52 54 56 59 59 59 63 66 69 71 73 74 77 81 85 88 89 90 92 94 93 91 89
58 59 60 61 61 61 60 61 62 63 64 65 65 65 63 61 60 60 61 63 64 66 67 69 70 72 73 74 75 75 75 74 75 75 75 73 73 75 78 77 75 74 74 74 73 74 73 69 65 62 61 61 61 61 61 61 60 59 58 56 52 51 52 54 56 58 57 57 61 65 68 70 71 73 75 78 82 86 88 90 92 94 95 94 91
59 60 62 63 61 59 60 62 64 65 66 67 67 65 63 61 61 62 64 67 69 71 72 74 75 76 76 76 75 74 75 75 76 77 76 75 76 78 78 77 75 74 73 73 73 72 68 64 63 64 63 62 62 62 62 61 61 61 59 56 52 51 52 54 55 57 56 55 58 63 68 70 70 71 73 75 79 83 86 89 91 93 95 95 94
60 62 64 64 62 61 63 65 66 67 68 68 68 67 65 63 63 64 66 68 71 74 75 76 77 76 76 75 75 75 76 76 77 77 77 77 77 77 76 75 75 74 73 73 72 69 65 63 64 66 66 64 63 63 62 61 62 62 60 57 52 49 52 54 54 56 56 54 54 60 66 69 69 69 72 73 76 81 84 87 90 92 93 95 95
63 64 65 66 65 65 66 67 68 69 70 69 69 67 66 64 64 65 67 70 72 73 74 75 74 74 74 74 74 76 77 77 78 79 78 76 75 74 73 74 73 73 74 73 69 67 67 67 67 68 67 66 64 63 62 61 62 61 59 57 52 49 50 52 53 55 56 53 52 56 64 68 67 67 70 72 75 78 81 85 89 91 92 93 95
64 62 64 67 63 61 64 66 67 69 69 69 69 69 69 68 68 70 71 71 72 72 72 72 72 73 73 73 75 77 78 79 79 79 77 75 72 72 72 73 72 72 73 70 68 69 70 69 68 69 69 67 65 64 63 62 61 60 57 55 52 49 48 49 51 54 55 53 51 54 61 66 65 64 67 72 73 75 78 82 86 89 91 92 93
61 59 63 65 59 59 64 66 67 69 69 68 69 69 70 71 71 72 72 71 70 70 70 71 72 73 73 75 77 79 80 81 80 79 78 76 73 73 74 76 76 74 72 70 70 72 72 71 71 71 70 68 65 64 63 62 60 58 55 53 50 47 46 47 50 53 54 52 50 51 57 63 63 62 66 71 72 73 75 79 84 87 89 90 91
63 60 60 61 59 61 65 66 67 68 67 67 68 68 69 70 71 71 70 68 68 68 70 72 73 74 75 77 80 80 82 83 83 82 80 78 76 76 77 78 77 74 72 72 73 74 74 73 73 72 71 69 66 63 62 61 59 56 53 51 49 46 45 46 48 51 53 52 49 50 54 59 60 60 64 70 72 72 73 76 81 84 86 88 90
67 60 56 58 61 63 66 67 67 67 67 68 68 68 69 70 69 68 67 66 68 70 71 73 75 76 78 79 81 82 84 85 84 84 82 79 78 78 78 76 74 73 74 74 74 75 76 76 75 73 71 68 65 63 61 60 57 53 50 49 47 44 43 45 47 50 52 52 49 47 50 56 57 58 63 69 70 70 72 74 78 81 82 85 88
69 64 61 62 63 65 68 68 66 67 68 68 67 67 68 68 67 66 66 66 68 70 72 74 77 79 80 81 83 85 86 87 86 83 81 80 80 79 76 74 73 74 75 75 75 76 78 78 77 75 72 67 64 61 59 57 55 51 48 46 45 44 42 43 46 48 51 52 49 45 47 53 56 58 63 67 68 69 71 72 73 76 78 82 85
69 67 67 67 66 67 68 65 65 67 66 65 65 66 67 68 68 66 66 68 70 72 75 78 79 80 81 83 86 88 88 88 85 83 82 82 80 78 75 74 74 75 77 76 77 78 79 79 78 75 71 67 63 60 58 55 53 49 46 44 43 43 41 41 43 46 50 52 48 44 47 53 57 60 63 65 65 68 71 72 70 71 75 80 84
Wind_Direction
32 32 30 27 24 22 24 25 24 24 24 21 17 14 12 9 7 4 358 355 359 3 6 8 9 6 350 315 286 270 257 250 249 250 249 246 241 238 238 239 237 236 239 239 236 229 225 224 215 212 213 214 221 231 239 244 245 267 285 285 253 232 223 220 214 209 208 208 200 189 185 185 184 178 172 171 174 171 146 103 80 80 85 90 93
35 35 32 26 22 21 21 21 20 20 19 17 13 10 9 6 6 7 5 3 4 6 8 11 13 14 11 356 316 281 266 254 246 244 245 244 241 238 237 238 237 236 238 238 237 232 224 220 215 214 215 215 223 230 232 234 231 241 257 270 267 246 231 226 225 218 210 208 207 200 193 191 192 189 184 179 178 179 168 135 113 110 101 95 98
29 28 26 23 21 20 19 18 17 15 14 12 9 6 5 4 5 7 9 8 8 8 8 11 14 15 15 13 359 318 281 265 252 245 242 241 240 237 236 237 237 237 237 238 239 237 227 216 211 213 219 221 223 227 229 227 224 229 236 250 268 267 247 233 230 228 220 213 209 207 201 196 196 197 194 188 184 182 180 171 159 146 127 115 110
23 22 20 18 17 16 16 15 15 13 11 9 6 4 3 3 4 7 10 9 8 9 9 10 14 15 15 16 14 360 320 282 265 252 244 240 239 236 235 235 237 237 238 238 239 238 233 221 211 211 220 227 224 223 227 226 221 222 224 235 251 263 266 250 235 233 231 224 216 212 208 203 201 201 201 197 192 187 184 182 180 166 145 135 133
15 14 14 13 13 12 11 11 10 9 8 7 5 3 2 2 2 6 9 9 7 7 9 10 12 14 15 15 16 14 1 322 285 266 252 243 239 237 235 233 235 237 238 238 237 237 235 228 219 214 218 227 227 223 226 228 224 222 222 226 232 243 258 260 244 235 233 233 228 222 217 211 207 206 206 204 200 195 188 184 183 179 167 157 157
9 9 8 9 8 9 8 7 5 4 4 4 3 2 0 0 1 4 6 9 9 9 9 9 10 11 14 15 16 16 15 3 331 291 267 252 244 239 236 233 232 235 237 237 237 235 234 232 226 222 222 224 226 226 226 228 228 225 226 228 224 228 242 251 251 241 234 233 234 233 228 221 216 211 210 209 206 203 197 190 187 186 182 179 179
7 6 6 5 6 5 5 4 2 0 360 360 360 359 359 359 359 1 3 6 10 12 12 11 11 12 13 15 17 17 17 16 8 343 297 267 252 244 240 236 233 233 235 236 237 235 234 233 230 228 227 224 223 226 226 227 229 229 231 232 224 222 232 242 248 251 242 234 234 236 235 231 226 220 215 212 210 208 205 199 195 192 190 190 192
3 3 3 3 3 2 2 1 359 358 357 356 355 356 356 357 357 358 359 0 4 9 12 12 13 15 15 16 17 18 17 18 17 14 355 306 269 253 245 241 237 234 235 236 237 236 234 233 232 230 230 227 222 222 225 227 231 232 233 231 223 223 232 237 241 251 255 244 238 236 236 235 233 229 223 217 213 211 209 207 204 199 196 193 193
358 358 359 359 358 358 358 357 356 355 354 352 352 352 353 355 355 354 354 356 358 1 5 8 10 13 16 18 18 18 19 19 20 20 18 5 320 273 254 247 243 239 236 236 237 237 236 234 233 232 232 232 227 222 221 227 232 233 232 230 223 222 232 241 244 251 260 259 249 241 238 236 234 232 229 225 219 214 211 210 209 206 203 198 194
352 353 353 354 354 353 353 354 353 352 350 350 349 349 350 352 352 351 351 353 355 356 358 1 4 6 12 17 19 19 19 20 21 22 22 20 12 337 282 258 249 244 241 239 238 237 237 237 236 234 233 232 232 227 223 225 231 233 231 230 225 220 228 246 251 250 251 248 243 241 237 233 232 231 229 228 224 219 215 212 211 209 206 203 198
348 348 348 349 349 349 349 350 349 348 348 347 347 346 347 348 350 350 349 351 354 355 355 356 359 1 4 10 14 16 18 19 21 22 21 20 20 14 350 294 262 251 246 243 241 239 237 237 237 237 235 233 233 232 228 225 227 231 230 228 226 221 225 236 238 237 238 237 234 235 237 232 229 229 228 227 226 223 220 215 213 211 208 205 201
344 345 344 344 345 345 346 346 346 346 345 345 344 344 344 345 347 349 348 349 353 356 355 354 354 357 359 2 6 9 14 17 19 20 20 19 19 20 16 357 308 269 254 248 244 242 240 238 237 237 237 236 234 234 233 228 226 228 228 228 225 219 222 227 228 228 230 233 235 237 243 241 234 231 229 227 226 225 224 221 218 215 211 207 204
342 342 341 341 342 343 343 343 343 343 343 343 342 342 342 343 346 347 347 349 354 356 356 354 353 353 355 358 360 1 4 9 14 17 19 19 19 19 19 13 360 320 276 257 249 245 243 241 239 238 237 237 236 235 234 231 228 227 224 224 223 217 219 225 225 225 227 228 231 236 244 247 241 236 233 230 228 226 226 226 223 220 217 213 209
340 339 339 339 340 340 340 341 341 341 341 341 341 341 341 342 344 346 347 350 355 357 357 355 353 353 354 355 355 357 358 1 5 9 14 17 19 19 18 14 10 360 329 283 261 252 247 244 242 239 238 237 236 236 235 233 231 229 223 219 220 219 219 223 225 226 227 226 225 227 235 242 242 238 236 234 232 230 227 227 227 225 222 219 217
338 337 337 337 337 337 337 338 339 340 341 341 340 339 340 342 343 345 346 349 353 356 357 356 354 354 355 354 353 353 354 356 358 0 5 10 14 16 17 15 13 10 2 337 291 264 253 248 245 243 241 239 237 237 236 235 233 232 227 220 220 222 220 220 225 229 230 228 225 223 226 234 240 238 235 234 234 232 230 229 228 227 225 223 221
335 335 334 333 334 335 334 335 338 340 340 340 340 339 340 341 342 343 344 345 348 352 355 355 354 355 355 355 354 352 351 352 354 356 358 2 5 7 9 12 15 15 12 6 346 300 267 254 249 246 244 242 240 238 238 237 235 233 231 226 223 224 223 219 221 227 232 231 228 224 222 225 234 237 235 234 233 232 232 231 230 229 229 226 223
334 334 334 332 332 333 332 332 336 339 338 339 339 338 339 339 339 341 342 341 341 346 349 351 352 354 356 356 356 355 351 349 350 352 353 355 357 359 0 3 9 13 13 12 8 354 312 271 255 249 247 245 244 241 239 239 238 236 234 231 228 227 225 221 220 223 229 233 232 229 224 222 228 236 240 239 234 231 231 231 231 230 230 230 227
333 333 334 333 333 334 333 331 333 335 336 337 337 337 336 336 337 339 340 338 336 338 341 344 347 350 353 354 354 354 352 349 348 348 349 350 352 353 354 356 360 4 7 9 10 9 2 329 279 258 250 248 246 244 242 240 239 238 237 234 231 229 227 225 223 223 224 229 233 232 228 224 224 230 238 241 238 234 230 229 231 231 231 231 231
332 333 334 333 333 335 334 331 330 330 332 334 335 335 334 335 336 338 340 340 336 334 334 336 338 341 345 347 348 349 350 349 347 346 346 347 347 347 349 352 354 355 358 1 3 4 6 4 344 293 263 253 249 246 244 242 240 239 238 236 234 232 230 227 226 225 224 226 230 232 231 228 225 226 230 235 237 237 233 229 229 230 231 232 232
331 332 333 332 331 331 332 331 329 328 330 333 334 334 335 337 338 338 340 341 340 336 334 333 333 334 336 340 342 343 345 346 345 344 343 343 344 344 344 346 349 349 350 353 355 355 355 357 358 347 309 272 257 250 247 244 242 240 238 237 235 234 234 231 228 226 226 226 227 229 230 229 228 228 228 229 232 236 235 231 230 230 231 233 234
330 330 331 331 330 330 330 331 330 330 331 333 333 334 336 338 337 336 336 338 338 337 336 334 332 331 331 333 336 338 339 340 341 341 341 341 341 341 341 342 343 344 345 346 348 349 349 348 347 347 340 318 281 260 251 247 244 241 239 238 236 235 234 234 231 226 224 226 227 227 227 228 229 230 230 228 228 231 233 234 232 230 229 231 233
328 328 329 330 331 331 331 331 332 333 333 333 336 337 337 336 334 333 333 334 334 334 335 333 331 329 328 329 330 333 334 334 335 336 336 337 338 339 338 338 338 339 341 341 342 344 345 344 342 340 337 331 318 288 262 252 247 243 241 239 237 235 234 234 233 230 225 224 225 226 225 226 228 231 231 229 227 228 231 233 233 230 227 227 229
326 326 327 329 330 331 333 333 335 334 330 329 333 335 334 334 333 332 331 332 331 329 329 329 327 326 325 325 327 329 330 330 329 330 332 333 336 336 335 335 335 335 336 337 337 338 340 340 339 337 334 329 325 314 287 261 251 246 242 240 238 236 235 234 234 232 228 225 224 224 224 224 226 229 231 230 227 226 228 230 230 231 227 225 228
324 325 326 328 329 332 334 335 335 333 328 324 325 326 327 329 330 330 330 330 329 326 323 322 321 321 320 321 324 327 328 327 326 326 326 329 332 333 332 332 332 332 333 333 333 334 335 335 334 334 332 328 323 319 305 279 259 249 244 241 239 237 235 235 234 233 231 228 225 224 224 223 223 226 228 230 228 226 227 228 228 230 228 227 230
323 323 325 325 326 329 333 333 331 330 329 326 322 321 322 323 324 325 325 326 326 324 321 318 316 316 316 318 321 324 325 325 324 323 322 325 328 330 330 330 329 330 330 331 330 330 330 330 329 330 329 327 323 318 310 291 270 255 247 242 240 238 236 235 234 233 232 230 228 226 224 223 223 224 225 228 229 227 226 227 227 228 229 228 230
321 322 323 322 321 324 328 328 327 326 326 326 324 321 321 320 319 319 321 322 323 322 320 317 315 313 314 315 318 320 322 322 322 320 319 321 325 327 328 327 327 327 327 328 328 328 328 327 326 326 327 327 324 318 311 296 277 262 251 244 241 238 236 235 234 233 232 231 229 228 227 225 223 223 224 225 227 228 227 225 225 227 227 228 229
319 320 320 319 317 320 323 323 323 323 324 326 326 324 321 319 315 313 315 319 320 319 318 315 314 313 312 313 315 317 319 319 319 318 316 318 322 324 325 325 324 325 325 326 326 326 326 325 324 325 325 326 325 320 311 298 280 267 256 247 242 239 237 236 235 234 233 232 230 229 228 226 225 224 224 224 225 227 227 226 224 225 226 227 228
317 317 317 316 315 318 321 321 321 321 321 323 324 324 321 317 313 309 310 314 316 317 316 314 313 312 312 312 313 315 317 317 317 317 315 316 319 321 322 322 322 323 323 324 323 324 324 324 323 324 325 326 326 321 311 298 281 268 261 251 243 240 237 236 235 234 233 232 231 230 228 227 226 225 225 224 224 225 227 226 225 224 224 225 228
318 316 315 316 315 316 317 317 317 317 317 317 318 319 318 315 312 308 308 310 312 314 314 314 314 313 312 311 312 314 315 315 315 315 313 314 316 318 318 320 321 322 322 321 321 321 322 322 322 323 324 325 325 321 310 298 282 267 262 256 246 240 237 236 235 234 233 232 231 231 229 228 226 225 225 225 224 224 225 226 226 224 224 225 227
320 316 315 316 315 313 312 311 310 311 312 312 311 312 314 313 309 307 307 308 309 311 313 314 315 314 312 310 311 313 314 315 313 312 311 312 314 315 316 318 320 320 320 318 318 319 320 320 321 322 323 324 324 320 310 299 285 269 259 256 250 242 237 235 234 233 233 232 231 231 230 228 227 226 225 224 225 224 224 225 226 225 225 225 226
317 315 314 314 313 311 308 307 307 308 309 308 307 308 310 310 307 306 305 306 308 310 312 314 315 314 311 309 311 313 313 312 310 309 310 311 312 312 313 315 317 318 317 316 316 317 319 319 320 321 322 323 322 318 310 300 289 275 261 254 250 245 239 236 234 233 232 232 231 230 230 229 228 227 226 224 224 225 224 224 225 225 224 224 224
311 311 310 308 308 307 305 304 305 306 306 304 303 306 307 306 305 302 302 304 308 310 312 313 313 312 310 309 309 309 308 307 307 309 310 311 310 310 310 313 315 315 314 314 315 316 317 318 319 320 321 321 320 315 307 300 291 279 266 256 251 248 243 238 235 233 232 232 231 230 229 229 228 227 226 225 224 224 225 225 225 224 224 224 223
304 304 303 301 301 302 300 300 301 302 304 303 302 303 304 302 300 298 300 304 308 309 309 310 310 310 309 308 307 306 305 306 308 310 310 310 308 308 309 312 313 312 312 312 313 314 316 317 318 318 319 319 317 311 304 299 295 286 273 260 252 249 247 242 237 234 232 231 231 231 229 228 228 227 226 226 225 224 225 225 225 224 224 223 222
301 301 300 299 300 300 298 297 298 300 303 303 301 302 302 300 298 297 300 304 305 306 307 308 308 308 308 307 306 305 306 308 310 311 310 308 307 307 309 311 311 310 310 310 311 313 314 315 317 317 317 317 315 310 301 295 293 289 280 268 257 251 248 246 241 236 233 231 231 231 230 229 228 227 226 225 225 224 224 225 225 224 224 223 222
303 304 304 303 303 302 300 299 299 301 303 303 302 303 303 301 297 296 300 303 304 305 306 306 306 306 306 306 306 306 308 310 311 311 309 307 306 307 309 310 309 309 308 309 310 312 313 314 315 315 316 316 314 309 301 293 290 288 283 274 264 255 250 247 244 240 235 231 230 230 230 229 228 227 226 225 224 224 224 224 224 224 223 223 222
307 307 308 307 305 304 302 302 301 301 302 302 302 304 304 300 295 296 301 304 304 304 304 305 305 304 304 306 307 309 310 311 312 311 308 306 305 307 308 308 307 307 307 308 310 312 313 313 313 314 315 314 312 308 302 294 289 286 282 277 269 261 253 249 246 243 238 233 230 230 230 230 228 227 226 225 224 223 223 223 224 224 223 223 222
307 307 307 307 306 304 302 301 300 299 299 299 301 304 304 299 295 298 302 304 303 303 302 303 303 303 304 306 309 311 312 312 311 308 306 305 305 307 307 306 306 306 307 309 311 312 312 312 312 313 314 313 311 309 305 298 291 286 282 277 271 264 258 252 248 244 240 235 231 229 229 230 229 227 226 225 224 223 222 222 222 223 223 223 222
303 303 304 304 303 301 300 299 298 296 296 296 299 303 303 298 297 300 302 302 301 300 300 301 301 302 304 306 309 311 312 310 308 307 306 305 305 305 305 304 305 306 308 310 311 311 311 311 312 312 312 311 309 308 306 303 297 291 284 279 273 266 260 255 251 246 242 237 232 229 228 229 229 228 226 225 224 223 222 221 221 222 223 223 222
300 300 300 300 300 300 299 298 296 295 295 297 298 300 299 297 298 300 301 300 299 298 298 299 300 301 303 306 308 310 310 309 308 307 307 306 305 304 304 305 306 307 309 310 310 310 311 311 311 311 311 310 308 308 307 304 300 295 289 282 276 269 262 256 253 249 244 238 234 230 228 228 229 229 227 225 224 223 222 221 220 220 221 222 222
300 299 299 300 301 302 301 300 299 299 299 299 299 298 297 298 299 300 300 299 298 297 298 298 298 300 302 305 307 308 309 309 309 308 307 306 305 305 305 306 308 309 309 310 310 310 310 311 311 311 309 308 308 308 306 303 300 296 292 286 278 272 266 259 254 251 246 239 234 231 228 227 228 229 227 226 225 223 222 221 220 220 220 221 221
303 303 303 304 304 303 303 302 301 301 300 300 300 300 301 302 302 302 300 299 297 296 296 297 297 299 301 303 305 307 308 309 309 308 307 307 306 305 306 308 309 309 309 309 310 310 310 311 311 309 308 308 307 307 305 302 299 296 292 288 281 274 267 262 257 253 248 240 234 231 229 227 227 228 228 226 225 224 222 222 221 220 219 220 220
305 305 304 305 304 303 302 301 301 300 300 301 301 301 302 301 300 299 298 296 295 295 295 296 297 299 301 303 305 307 309 310 309 309 308 307 305 305 307 308 309 309 309 309 309 310 310 310 309 308 307 307 307 305 303 300 298 295 291 287 283 275 267 262 258 255 250 242 235 231 229 227 226 227 228 226 225 224 222 222 221 221 220 219 220
304 304 304 305 304 301 300 301 300 300 300 299 299 298 297 296 295 295 294 294 294 294 295 297 298 300 302 304 306 308 309 310 309 308 308 307 305 305 306 307 308 309 309 309 309 310 310 308 307 307 307 307 306 304 301 299 297 294 291 287 282 276 268 262 258 255 251 244 236 231 229 227 225 226 227 227 225 224 223 222 222 221 220 219 219
304 304 304 305 303 299 299 299 299 298 298 297 297 296 295 294 294 294 294 294 294 295 296 297 299 301 303 305 306 307 308 308 308 308 308 307 306 306 306 307 308 309 309 309 309 309 308 307 306 307 307 306 305 303 301 299 297 294 291 288 282 275 267 262 258 255 251 245 237 232 230 227 224 224 227 227 226 225 223 222 222 221 221 220 219
304 304 303 304 303 300 298 298 297 297 297 297 297 297 296 296 296 296 296 296 297 297 298 299 300 301 303 304 305 305 306 306 307 308 308 308 307 306 307 308 309 309 309 308 308 308 307 307 307 307 307 306 305 303 301 299 296 293 291 288 283 274 266 261 257 254 251 245 237 232 231 228 224 223 226 227 226 225 223 222 222 221 221 220 219
305 303 303 305 302 296 296 297 297 297 297 297 297 296 296 297 298 299 299 299 299 299 299 300 301 303 303 303 303 304 305 306 308 309 309 309 308 308 308 308 308 308 308 308 307 308 307 308 308 307 307 306 305 303 301 299 296 293 291 288 282 273 265 259 255 252 250 245 237 230 230 229 225 222 225 228 227 226 224 223 222 221 221 220 220
305 301 301 303 298 292 295 298 297 297 296 295 295 295 295 296 297 297 298 297 298 298 299 301 302 303 303 302 303 305 307 309 310 311 311 311 310 309 309 309 308 308 308 308 308 308 308 308 308 307 307 306 305 304 302 299 296 293 291 287 281 273 265 258 253 250 249 245 237 229 229 229 225 222 225 228 228 227 224 223 222 221 220 220 220
302 299 299 301 296 293 296 298 297 297 295 294 294 294 295 296 295 295 295 295 296 297 300 302 302 302 303 304 305 307 309 311 312 312 312 312 311 310 310 309 309 309 309 308 309 309 308 308 308 307 307 307 306 305 302 299 296 294 291 286 279 272 264 257 252 249 247 244 237 228 227 229 225 222 224 227 228 228 226 223 222 222 220 220 219
302 300 298 296 293 293 297 298 297 296 294 293 294 294 294 294 293 293 293 294 295 298 300 302 302 303 305 306 307 308 310 312 312 312 312 311 311 311 310 309 309 309 309 309 310 309 309 309 309 308 308 307 306 305 302 299 297 294 291 285 278 271 263 257 252 248 245 243 237 227 225 229 226 222 224 227 227 228 227 225 222 222 220 219 219
301 299 297 296 292 294 297 298 296 295 294 294 295 294 293 293 292 292 293 295 297 300 301 302 303 304 306 307 308 310 311 312 312 312 311 311 311 310 309 309 309 309 309 309 310 310 310 310 310 309 308 308 306 304 302 299 297 294 290 285 278 271 263 256 252 248 244 241 236 227 224 228 228 223 223 225 226 226 228 227 223 221 220 219 219
301 299 299 299 298 298 299 298 297 295 294 294 294 294 293 292 292 292 293 296 300 301 302 304 304 306 307 309 310 312 313 313 312 312 312 311 311 310 309 310 310 310 310 310 311 311 310 310 310 309 309 308 306 305 303 300 298 294 289 284 277 271 265 257 251 248 244 241 235 227 224 227 228 225 223 223 225 225 227 227 224 220 219 218 218
Height
10973 10972 10971 10970 10968 10966 10964 10963 10961 10959 10957 10955 10953 10951 10949 10947 10945 10942 10939 10937 10934 10932 10930 10927 10925 10922 10920 10917 10914 10913 10912 10912 10913 10914 10914 10915 10915 10916 10916 10917 10918 10919 10920 10920 10921 10922 10923 10924 10924 10925 10926 10927 10928 10928 10930 10931 10931 10932 10931 10931 10932 10932 10932 10933 10933 10934 10934 10935 10935 10936 10937 10938 10939 10939 10939 10940 10940 10941 10941 10941 10941 10941 10941 10941 10941
10974 10972 10971 10970 10969 10967 10965 10963 10961 10959 10957 10955 10953 10951 10949 10947 10944 10941 10938 10936 10933 10931 10928 10926 10923 10920 10917 10914 10911 10909 10908 10907 10907 10908 10909 10910 10911 10912 10913 10914 10915 10915 10916 10916 10918 10919 10921 10922 10923 10923 10924 10925 10926 10927 10927 10928 10929 10930 10930 10930 10931 10931 10932 10932 10933 10933 10933 10933 10934 10935 10936 10937 10938 10939 10939 10939 10940 10940 10941 10941 10941 10941 10941 10941 10941
10974 10973 10971 10970 10969 10967 10966 10964 10962 10960 10957 10955 10954 10951 10949 10946 10944 10940 10937 10934 10932 10930 10927 10924 10921 10918 10915 10912 10908 10906 10904 10903 10902 10903 10904 10906 10907 10908 10909 10910 10911 10912 10912 10913 10914 10916 10918 10920 10921 10921 10921 10922 10924 10925 10925 10926 10927 10928 10929 10929 10930 10930 10931 10931 10932 10933 10933 10933 10933 10933 10934 10936 10937 10938 10939 10939 10939 10939 10940 10941 10941 10941 10941 10941 10941
10974 10973 10972 10971 10969 10967 10966 10964 10962 10960 10958 10956 10954 10951 10948 10946 10943 10940 10936 10934 10931 10929 10926 10923 10920 10917 10914 10911 10907 10903 10901 10899 10899 10898 10899 10900 10902 10904 10905 10907 10907 10908 10908 10909 10910 10913 10915 10917 10918 10919 10919 10920 10921 10922 10922 10923 10924 10925 10926 10928 10929 10929 10930 10930 10931 10932 10933 10933 10933 10933 10933 10934 10935 10936 10937 10938 10938 10938 10939 10940 10941 10941 10941 10941 10941
10974 10973 10972 10970 10969 10967 10965 10963 10961 10959 10957 10955 10953 10951 10948 10946 10943 10939 10936 10934 10931 10929 10926 10923 10920 10917 10914 10911 10907 10903 10899 10896 10895 10895 10895 10896 10897 10899 10901 10903 10904 10904 10904 10905 10907 10909 10912 10913 10915 10916 10917 10917 10918 10919 10920 10921 10922 10923 10924 10926 10928 10928 10928 10929 10929 10930 10932 10933 10933 10933 10933 10933 10934 10935 10936 10937 10937 10938 10938 10939 10939 10940 10941 10941 10941
10974 10972 10971 10969 10968 10966 10964 10962 10960 10959 10957 10955 10952 10950 10948 10945 10942 10939 10937 10934 10932 10929 10926 10924 10921 10917 10914 10911 10907 10903 10899 10895 10893 10891 10891 10892 10893 10894 10896 10899 10900 10901 10901 10901 10903 10905 10908 10909 10911 10912 10912 10914 10916 10917 10918 10919 10920 10922 10923 10925 10926 10927 10927 10927 10928 10929 10930 10931 10933 10933 10933 10933 10933 10934 10934 10936 10937 10937 10937 10938 10938 10939 10940 10940 10941
10973 10972 10970 10968 10967 10965 10963 10961 10960 10958 10956 10954 10952 10949 10947 10945 10942 10939 10937 10935 10932 10929 10926 10924 10921 10917 10914 10911 10907 10903 10899 10895 10892 10889 10888 10888 10889 10890 10892 10894 10896 10897 10898 10898 10900 10902 10904 10906 10907 10908 10908 10910 10912 10914 10916 10917 10919 10921 10923 10924 10925 10925 10926 10926 10927 10928 10929 10930 10931 10932 10933 10933 10933 10933 10933 10934 10935 10936 10936 10937 10937 10938 10938 10939 10940
10973 10971 10969 10967 10965 10964 10962 10960 10959 10957 10955 10953 10951 10949 10946 10944 10941 10939 10937 10935 10932 10930 10927 10924 10921 10918 10915 10911 10907 10904 10900 10896 10892 10888 10886 10885 10885 10886 10888 10890 10892 10894 10895 10896 10898 10900 10901 10902 10903 10904 10904 10906 10908 10910 10913 10916 10917 10919 10921 10922 10923 10923 10925 10926 10927 10928 10928 10928 10929 10930 10931 10931 10932 10932 10933 10933 10934 10934 10935 10936 10936 10937 10937 10938 10939
10971 10970 10968 10966 10964 10963 10961 10959 10957 10955 10953 10952 10950 10948 10946 10943 10941 10938 10936 10934 10931 10929 10927 10924 10920 10918 10915 10911 10907 10904 10900 10896 10892 10889 10886 10884 10883 10884 10885 10886 10888 10890 10891 10893 10895 10897 10898 10900 10900 10901 10902 10903 10905 10908 10911 10913 10915 10917 10919 10920 10921 10923 10925 10927 10927 10928 10928 10928 10928 10928 10928 10929 10930 10931 10932 10932 10932 10933 10933 10934 10935 10935 10936 10937 10937
10970 10969 10967 10965 10964 10962 10960 10958 10956 10954 10952 10950 10948 10946 10944 10942 10940 10937 10935 10933 10930 10928 10926 10923 10920 10917 10914 10911 10908 10905 10901 10898 10894 10890 10887 10885 10883 10882 10882 10883 10884 10886 10888 10890 10891 10893 10896 10897 10898 10898 10899 10901 10903 10905 10907 10910 10912 10914 10916 10918 10920 10923 10926 10928 10928 10928 10927 10926 10925 10924 10924 10925 10926 10928 10929 10930 10931 10931 10931 10932 10933 10934 10935 10935 10936
10969 10967 10966 10964 10962 10961 10959 10957 10954 10953 10951 10949 10947 10945 10943 10941 10939 10936 10934 10932 10930 10927 10925 10922 10920 10917 10914 10911 10908 10905 10902 10899 10896 10892 10889 10886 10884 10882 10881 10881 10881 10883 10884 10886 10887 10889 10891 10893 10895 10896 10897 10899 10901 10902 10904 10907 10909 10912 10914 10916 10920 10924 10925 10925 10924 10923 10921 10919 10918 10918 10919 10921 10922 10924 10925 10927 10928 10929 10930 10930 10931 10932 10933 10934 10935
10968 10966 10964 10962 10961 10959 10957 10955 10953 10951 10949 10947 10945 10943 10941 10939 10937 10935 10932 10930 10928 10926 10923 10921 10919 10916 10913 10910 10908 10905 10903 10900 10898 10895 10891 10888 10885 10883 10881 10880 10879 10879 10880 10881 10883 10884 10886 10888 10890 10892 10894 10896 10898 10900 10902 10904 10906 10909 10911 10915 10919 10921 10919 10916 10915 10914 10914 10914 10915 10916 10917 10919 10920 10921 10923 10924 10925 10927 10928 10929 10930 10930 10931 10932 10933
10967 10965 10963 10961 10959 10957 10955 10953 10951 10949 10947 10945 10943 10941 10939 10937 10935 10933 10931 10928 10926 10924 10921 10919 10917 10915 10912 10909 10907 10904 10902 10900 10898 10896 10893 10890 10886 10884 10882 10880 10878 10877 10876 10877 10878 10879 10881 10883 10885 10887 10890 10892 10895 10898 10899 10901 10903 10905 10907 10911 10913 10912 10909 10907 10907 10907 10909 10911 10913 10914 10915 10916 10918 10919 10920 10922 10923 10924 10926 10927 10928 10929 10930 10930 10931
10965 10963 10962 10960 10958 10956 10954 10952 10950 10948 10946 10944 10941 10939 10937 10935 10932 10930 10928 10926 10924 10921 10919 10917 10915 10913 10911 10908 10906 10904 10901 10899 10897 10895 10893 10891 10888 10885 10882 10880 10878 10876 10874 10873 10873 10874 10876 10878 10880 10882 10884 10887 10890 10893 10895 10897 10899 10900 10903 10905 10905 10903 10902 10901 10902 10904 10905 10908 10910 10911 10912 10914 10915 10917 10918 10920 10921 10922 10923 10925 10926 10928 10929 10929 10930
10964 10962 10960 10958 10956 10954 10952 10950 10949 10946 10944 10942 10939 10937 10934 10932 10929 10927 10925 10923 10921 10919 10917 10915 10913 10911 10908 10906 10904 10902 10900 10898 10895 10893 10892 10890 10888 10886 10883 10881 10878 10876 10873 10871 10870 10870 10871 10873 10875 10877 10879 10881 10884 10887 10889 10891 10894 10895 10897 10899 10898 10898 10898 10899 10900 10901 10902 10904 10905 10907 10909 10911 10912 10913 10915 10917 10918 10920 10921 10922 10924 10925 10926 10928 10929
10962 10960 10958 10956 10955 10953 10951 10949 10947 10944 10942 10940 10937 10934 10932 10929 10926 10924 10922 10921 10919 10917 10915 10914 10912 10909 10907 10905 10903 10900 10898 10895 10893 10891 10890 10888 10887 10885 10883 10881 10879 10876 10873 10871 10869 10867 10867 10868 10870 10872 10874 10876 10878 10880 10882 10885 10888 10890 10891 10892 10893 10894 10895 10896 10896 10897 10898 10900 10901 10903 10905 10907 10908 10910 10911 10913 10915 10917 10919 10920 10921 10923 10924 10925 10927
10960 10958 10956 10954 10953 10951 10949 10946 10944 10942 10940 10937 10935 10932 10929 10926 10924 10921 10920 10918 10917 10915 10913 10911 10910 10907 10905 10903 10901 10899 10896 10893 10891 10889 10887 10885 10884 10882 10880 10879 10878 10876 10874 10871 10869 10867 10865 10864 10865 10867 10869 10871 10873 10875 10876 10879 10881 10884 10885 10887 10888 10889 10890 10892 10893 10894 10895 10896 10897 10899 10901 10903 10905 10906 10908 10910 10911 10913 10915 10917 10919 10920 10922 10923 10924
10958 10956 10954 10952 10950 10948 10946 10944 10942 10940 10937 10935 10932 10930 10927 10924 10921 10919 10918 10916 10915 10913 10911 10909 10907 10905 10903 10901 10899 10897 10895 10892 10889 10887 10885 10883 10881 10879 10878 10876 10875 10874 10873 10872 10870 10867 10865 10863 10862 10863 10864 10866 10868 10870 10871 10873 10875 10877 10879 10881 10882 10883 10885 10887 10889 10890 10891 10892 10893 10895 10897 10899 10901 10903 10904 10906 10908 10910 10912 10914 10916 10917 10919 10921 10922
10955 10953 10951 10950 10948 10946 10944 10942 10940 10937 10935 10932 10930 10927 10925 10922 10920 10918 10916 10915 10913 10911 10909 10907 10904 10902 10900 10898 10896 10895 10893 10891 10888 10885 10883 10881 10878 10876 10875 10873 10871 10870 10869 10869 10868 10867 10865 10863 10862 10861 10861 10861 10862 10864 10866 10867 10868 10870 10872 10873 10875 10877 10878 10881 10883 10885 10887 10888 10889 10891 10892 10894 10897 10899 10900 10902 10904 10906 10908 10910 10912 10914 10916 10918 10920
10953 10950 10949 10947 10946 10944 10941 10939 10937 10935 10932 10930 10927 10925 10923 10920 10918 10916 10915 10913 10911 10908 10906 10903 10901 10898 10896 10894 10892 10891 10890 10889 10887 10883 10881 10878 10876 10873 10871 10869 10868 10866 10865 10864 10864 10863 10862 10861 10859 10859 10858 10858 10857 10858 10859 10861 10862 10863 10864 10866 10868 10869 10871 10873 10876 10879 10881 10883 10884 10886 10888 10890 10892 10894 10896 10899 10900 10903 10905 10907 10909 10912 10914 10916 10917
10950 10948 10946 10944 10943 10941 10938 10936 10934 10932 10929 10927 10925 10923 10921 10919 10916 10914 10912 10910 10907 10905 10902 10900 10898 10895 10893 10891 10889 10887 10885 10884 10883 10881 10879 10876 10874 10871 10868 10865 10863 10863 10862 10860 10859 10858 10857 10856 10855 10855 10854 10854 10853 10853 10852 10853 10854 10856 10857 10858 10860 10861 10863 10865 10868 10871 10874 10876 10878 10880 10882 10885 10887 10889 10892 10895 10896 10898 10900 10903 10906 10908 10910 10911 10912
10947 10945 10943 10941 10939 10937 10935 10933 10930 10928 10927 10925 10923 10921 10919 10916 10914 10912 10909 10906 10903 10901 10899 10896 10894 10892 10890 10888 10886 10883 10881 10880 10879 10877 10876 10873 10871 10869 10866 10863 10860 10858 10857 10856 10854 10853 10852 10851 10850 10849 10849 10848 10847 10847 10846 10846 10846 10847 10849 10850 10852 10854 10855 10857 10860 10862 10865 10868 10871 10874 10876 10879 10881 10884 10886 10889 10892 10894 10896 10899 10901 10903 10903 10904 10905
10944 10941 10939 10937 10936 10934 10931 10930 10928 10926 10924 10922 10920 10918 10916 10913 10911 10908 10905 10903 10900 10897 10895 10893 10891 10889 10887 10885 10883 10880 10878 10876 10874 10872 10871 10868 10866 10865 10863 10861 10858 10856 10853 10852 10850 10849 10847 10846 10845 10844 10843 10842 10841 10840 10839 10839 10838 10838 10839 10841 10842 10844 10846 10849 10851 10854 10857 10860 10863 10866 10870 10873 10876 10878 10881 10883 10886 10888 10891 10893 10895 10897 10897 10899 10900
10941 10939 10937 10935 10933 10930 10928 10927 10925 10923 10921 10919 10917 10915 10913 10910 10907 10905 10902 10899 10897 10894 10892 10890 10888 10886 10884 10881 10879 10877 10874 10872 10869 10867 10865 10863 10861 10859 10858 10857 10855 10853 10851 10849 10846 10845 10843 10841 10840 10839 10837 10836 10834 10833 10832 10830 10830 10829 10830 10831 10833 10835 10837 10840 10843 10846 10850 10853 10856 10859 10862 10866 10869 10872 10875 10878 10880 10883 10885 10887 10890 10891 10893 10895 10897
10938 10936 10934 10932 10930 10927 10925 10924 10922 10920 10918 10915 10913 10911 10909 10907 10904 10901 10899 10896 10894 10892 10889 10887 10885 10882 10880 10878 10875 10873 10870 10868 10865 10862 10859 10857 10856 10854 10852 10851 10849 10848 10846 10845 10843 10841 10839 10837 10835 10833 10831 10829 10827 10825 10824 10822 10821 10821 10820 10821 10823 10825 10827 10830 10833 10837 10841 10845 10848 10851 10855 10858 10862 10865 10869 10872 10874 10876 10879 10881 10884 10886 10888 10890 10892
10935 10933 10931 10929 10926 10924 10922 10920 10919 10916 10914 10912 10909 10907 10905 10903 10900 10898 10896 10893 10891 10889 10886 10884 10881 10879 10876 10874 10871 10869 10867 10864 10860 10857 10854 10852 10850 10849 10847 10845 10844 10842 10840 10839 10838 10836 10834 10831 10829 10827 10824 10821 10819 10817 10815 10813 10812 10812 10812 10812 10814 10816 10818 10821 10824 10827 10831 10835 10839 10843 10847 10851 10854 10858 10862 10865 10868 10870 10872 10875 10878 10880 10883 10885 10888
10932 10929 10927 10925 10923 10920 10918 10917 10915 10913 10911 10908 10906 10903 10901 10899 10897 10894 10892 10890 10888 10885 10883 10880 10878 10875 10872 10869 10867 10864 10862 10860 10856 10853 10850 10847 10845 10843 10841 10839 10837 10836 10833 10832 10831 10830 10828 10825 10823 10820 10817 10813 10810 10808 10806 10804 10803 10803 10803 10804 10804 10807 10809 10812 10815 10818 10821 10825 10829 10834 10838 10842 10846 10850 10853 10857 10861 10863 10866 10868 10871 10874 10877 10880 10882
10927 10925 10923 10921 10919 10916 10914 10913 10911 10909 10907 10904 10902 10899 10896 10894 10892 10890 10888 10886 10884 10881 10879 10877 10874 10871 10868 10865 10862 10860 10858 10855 10852 10849 10846 10843 10840 10837 10835 10832 10830 10828 10826 10824 10823 10822 10821 10819 10815 10813 10810 10806 10802 10799 10797 10795 10794 10793 10794 10795 10796 10797 10800 10802 10805 10808 10811 10815 10819 10823 10828 10832 10836 10841 10845 10849 10853 10856 10859 10862 10865 10868 10871 10874 10877
10924 10922 10920 10918 10915 10913 10911 10909 10908 10906 10903 10901 10898 10895 10892 10890 10887 10885 10883 10881 10879 10877 10875 10872 10870 10867 10864 10861 10858 10856 10853 10850 10847 10844 10841 10838 10835 10833 10829 10826 10823 10820 10817 10815 10814 10815 10814 10811 10808 10805 10801 10799 10796 10792 10789 10787 10785 10785 10785 10786 10788 10788 10790 10792 10795 10798 10801 10805 10808 10812 10817 10822 10826 10831 10835 10840 10844 10848 10852 10855 10858 10861 10865 10868 10871
10921 10919 10918 10915 10912 10910 10907 10905 10904 10902 10900 10897 10894 10892 10889 10885 10882 10880 10877 10876 10874 10872 10870 10868 10866 10863 10860 10857 10854 10851 10849 10846 10843 10840 10837 10834 10831 10828 10824 10821 10817 10813 10810 10806 10805 10805 10805 10802 10800 10797 10793 10790 10788 10786 10783 10780 10778 10776 10776 10777 10778 10779 10780 10781 10784 10787 10791 10794 10798 10802 10806 10811 10816 10821 10825 10830 10835 10839 10844 10848 10851 10855 10858 10861 10865
10918 10916 10915 10913 10910 10907 10903 10901 10899 10897 10896 10893 10890 10887 10885 10881 10878 10874 10872 10870 10869 10867 10865 10863 10860 10858 10855 10852 10849 10847 10845 10842 10839 10835 10832 10829 10826 10823 10819 10816 10812 10809 10804 10800 10796 10794 10794 10792 10790 10789 10787 10782 10779 10778 10777 10775 10772 10769 10769 10769 10769 10769 10770 10771 10773 10776 10779 10783 10787 10791 10795 10800 10805 10810 10815 10820 10825 10830 10835 10839 10843 10847 10851 10854 10858
10914 10912 10911 10908 10906 10903 10900 10896 10894 10892 10890 10888 10885 10883 10880 10877 10873 10870 10867 10865 10864 10862 10859 10857 10854 10853 10850 10848 10845 10842 10840 10838 10834 10831 10827 10824 10821 10818 10815 10812 10808 10804 10799 10794 10789 10786 10785 10783 10779 10778 10778 10775 10772 10770 10769 10768 10766 10764 10761 10761 10760 10760 10760 10761 10763 10765 10768 10772 10776 10781 10785 10789 10793 10799 10805 10810 10815 10820 10825 10830 10835 10839 10843 10847 10851
10910 10907 10905 10903 10901 10899 10896 10892 10889 10887 10885 10882 10880 10878 10875 10872 10868 10864 10861 10860 10859 10856 10854 10851 10849 10847 10845 10843 10840 10837 10835 10832 10829 10826 10822 10819 10815 10812 10809 10806 10803 10799 10794 10789 10783 10778 10776 10774 10771 10768 10767 10766 10765 10763 10761 10760 10759 10757 10755 10753 10752 10751 10750 10751 10753 10755 10758 10761 10765 10769 10774 10778 10782 10788 10794 10800 10805 10810 10815 10820 10826 10831 10835 10840 10844
10904 10902 10900 10898 10895 10893 10891 10888 10885 10882 10880 10877 10875 10873 10870 10867 10863 10859 10856 10854 10852 10851 10848 10846 10843 10841 10839 10837 10834 10831 10829 10826 10823 10820 10816 10813 10809 10806 10803 10799 10796 10793 10789 10784 10778 10772 10767 10765 10763 10760 10756 10755 10754 10753 10753 10751 10750 10749 10747 10745 10744 10742 10741 10741 10743 10745 10747 10750 10754 10758 10762 10767 10771 10776 10782 10788 10794 10800 10805 10811 10816 10822 10827 10832 10836
10898 10896 10894 10892 10890 10887 10885 10883 10880 10877 10875 10872 10870 10868 10865 10862 10858 10853 10850 10848 10846 10844 10843 10840 10838 10836 10833 10831 10828 10825 10822 10819 10817 10814 10810 10807 10803 10799 10795 10792 10788 10785 10782 10778 10773 10767 10760 10756 10755 10753 10749 10744 10742 10742 10742 10742 10741 10739 10738 10736 10735 10733 10732 10732 10732 10734 10736 10740 10743 10746 10750 10755 10759 10765 10771 10776 10783 10789 10795 10801 10806 10812 10818 10823 10828
10893 10890 10888 10886 10884 10882 10879 10877 10874 10872 10870 10867 10865 10863 10860 10857 10852 10847 10845 10843 10840 10838 10836 10834 10832 10829 10827 10824 10821 10818 10815 10812 10809 10807 10804 10800 10796 10792 10788 10784 10781 10777 10774 10771 10766 10760 10755 10748 10745 10744 10741 10736 10731 10730 10731 10732 10731 10729 10728 10727 10725 10723 10722 10722 10723 10723 10726 10730 10733 10735 10739 10743 10748 10754 10759 10765 10771 10777 10784 10790 10796 10801 10807 10814 10819
10889 10886 10884 10881 10879 10877 10874 10872 10870 10868 10866 10863 10861 10858 10855 10852 10846 10842 10840 10837 10834 10832 10830 10828 10826 10823 10820 10817 10814 10810 10807 10805 10802 10800 10797 10793 10789 10784 10781 10776 10772 10769 10765 10762 10758 10753 10749 10743 10737 10733 10732 10728 10723 10719 10719 10721 10721 10719 10718 10717 10715 10713 10712 10712 10713 10714 10715 10718 10722 10725 10728 10731 10736 10742 10748 10753 10759 10766 10772 10779 10785 10791 10797 10803 10809
10885 10882 10879 10877 10874 10872 10870 10868 10865 10863 10860 10858 10856 10853 10850 10846 10841 10838 10835 10831 10829 10826 10824 10821 10819 10816 10814 10810 10807 10804 10801 10798 10796 10793 10789 10785 10781 10776 10773 10768 10764 10760 10756 10752 10749 10745 10741 10737 10731 10726 10722 10718 10715 10712 10710 10709 10709 10708 10707 10707 10705 10703 10702 10702 10702 10703 10704 10707 10710 10714 10717 10720 10724 10730 10736 10742 10748 10754 10761 10767 10774 10780 10786 10792 10799
10880 10876 10873 10871 10869 10866 10864 10862 10859 10857 10854 10852 10850 10848 10844 10840 10836 10833 10829 10826 10823 10820 10818 10815 10812 10809 10806 10803 10800 10797 10794 10791 10788 10785 10781 10776 10772 10768 10764 10760 10755 10751 10746 10743 10740 10736 10732 10728 10723 10718 10713 10708 10705 10703 10701 10699 10697 10696 10696 10696 10694 10692 10692 10692 10691 10691 10693 10696 10699 10703 10707 10709 10713 10719 10725 10731 10737 10743 10749 10756 10762 10769 10775 10781 10788
10874 10871 10868 10865 10862 10859 10856 10854 10851 10849 10847 10845 10843 10841 10837 10833 10830 10826 10823 10820 10817 10814 10811 10809 10806 10802 10799 10795 10792 10790 10787 10783 10779 10775 10771 10767 10763 10758 10754 10751 10747 10741 10737 10734 10729 10726 10722 10718 10714 10709 10705 10700 10696 10694 10692 10689 10687 10685 10684 10684 10683 10681 10680 10680 10680 10680 10682 10685 10688 10692 10695 10698 10703 10708 10713 10719 10725 10731 10738 10745 10751 10757 10764 10770 10777
10867 10864 10861 10858 10855 10852 10849 10847 10844 10842 10840 10838 10836 10833 10829 10826 10823 10819 10817 10814 10811 10808 10805 10802 10799 10796 10793 10789 10785 10782 10779 10775 10771 10766 10762 10758 10753 10748 10743 10740 10737 10732 10728 10724 10720 10716 10711 10707 10703 10699 10695 10692 10688 10685 10682 10678 10677 10675 10673 10672 10672 10670 10669 10668 10667 10667 10670 10674 10678 10681 10684 10687 10692 10697 10702 10707 10713 10720 10727 10733 10739 10746 10753 10759 10767
10860 10857 10854 10852 10849 10845 10842 10839 10837 10834 10832 10830 10828 10826 10823 10820 10817 10814 10810 10807 10804 10801 10798 10794 10791 10788 10785 10781 10777 10774 10770 10766 10761 10756 10752 10749 10743 10737 10732 10729 10726 10722 10718 10714 10710 10706 10702 10698 10693 10689 10686 10683 10679 10676 10672 10668 10666 10665 10662 10660 10660 10658 10657 10657 10655 10654 10658 10663 10667 10670 10673 10676 10682 10687 10691 10696 10702 10708 10716 10722 10728 10734 10741 10749 10756
10853 10850 10847 10845 10842 10838 10835 10832 10829 10827 10825 10823 10822 10819 10817 10814 10811 10808 10804 10800 10796 10792 10789 10786 10782 10779 10776 10772 10768 10765 10761 10756 10751 10747 10743 10739 10734 10728 10723 10719 10715 10712 10708 10704 10700 10697 10694 10690 10684 10680 10677 10674 10670 10666 10662 10659 10655 10652 10649 10648 10648 10647 10645 10645 10644 10643 10646 10651 10657 10660 10661 10665 10672 10677 10680 10686 10692 10697 10705 10711 10716 10723 10730 10738 10746
10847 10844 10840 10838 10835 10832 10829 10826 10823 10821 10819 10817 10816 10813 10810 10807 10804 10801 10797 10792 10788 10784 10780 10777 10774 10771 10767 10763 10759 10755 10751 10747 10742 10738 10734 10730 10724 10718 10714 10710 10705 10702 10698 10694 10690 10686 10683 10680 10676 10671 10667 10665 10661 10656 10652 10649 10645 10641 10637 10635 10635 10635 10633 10633 10634 10633 10634 10639 10646 10650 10651 10654 10663 10668 10671 10676 10681 10686 10693 10700 10705 10712 10719 10727 10735
10842 10839 10835 10832 10829 10825 10822 10819 10816 10814 10812 10810 10808 10805 10802 10799 10796 10792 10788 10784 10779 10775 10772 10768 10765 10762 10758 10755 10751 10746 10743 10739 10734 10729 10725 10721 10716 10710 10705 10701 10696 10692 10688 10683 10680 10677 10673 10670 10666 10661 10656 10654 10651 10646 10641 10638 10634 10630 10627 10623 10622 10623 10621 10622 10623 10622 10623 10628 10635 10641 10641 10644 10654 10661 10663 10666 10670 10675 10682 10689 10694 10701 10708 10716 10725
10835 10832 10829 10826 10822 10817 10815 10812 10809 10806 10804 10802 10800 10797 10793 10790 10788 10784 10779 10775 10771 10767 10764 10760 10757 10753 10750 10746 10742 10738 10734 10729 10726 10721 10716 10712 10708 10702 10697 10692 10688 10683 10678 10674 10671 10666 10662 10659 10656 10651 10646 10642 10639 10635 10630 10627 10623 10619 10616 10613 10610 10610 10611 10611 10612 10611 10613 10617 10624 10631 10632 10634 10645 10655 10655 10655 10660 10666 10672 10678 10684 10690 10698 10705 10714
10831 10827 10823 10821 10816 10810 10807 10805 10801 10797 10795 10793 10791 10788 10785 10783 10780 10776 10772 10768 10764 10760 10756 10753 10749 10745 10742 10738 10734 10730 10724 10719 10715 10711 10706 10702 10698 10693 10688 10682 10678 10674 10669 10665 10661 10656 10651 10649 10646 10641 10636 10631 10628 10624 10618 10614 10611 10608 10605 10602 10599 10599 10600 10601 10601 10601 10603 10607 10614 10621 10623 10626 10637 10646 10646 10645 10649 10655 10661 10667 10672 10679 10687 10695 10703
10826 10822 10818 10814 10810 10805 10800 10797 10793 10789 10786 10784 10782 10779 10777 10774 10772 10768 10765 10761 10757 10753 10749 10745 10740 10737 10734 10729 10724 10720 10715 10709 10704 10700 10696 10693 10689 10683 10678 10672 10668 10664 10659 10655 10651 10646 10641 10639 10635 10630 10625 10620 10616 10612 10607 10602 10600 10598 10595 10591 10588 10589 10590 10590 10591 10591 10593 10598 10604 10612 10616 10619 10627 10637 10637 10635 10639 10645 10651 10656 10660 10667 10676 10685 10693
10818 10816 10813 10808 10803 10797 10793 10790 10785 10781 10778 10775 10774 10771 10768 10765 10762 10759 10757 10754 10750 10745 10741 10736 10731 10728 10725 10721 10715 10711 10706 10701 10696 10691 10686 10683 10679 10674 10669 10664 10659 10654 10649 10644 10641 10635 10628 10625 10621 10617 10613 10610 10606 10601 10596 10592 10589 10587 10584 10580 10578 10578 10580 10580 10581 10582 10585 10589 10595 10603 10610 10611 10617 10627 10627 10625 10630 10637 10641 10644 10650 10658 10667 10676 10684
10809 10808 10806 10801 10795 10790 10786 10782 10778 10774 10769 10767 10765 10762 10758 10756 10753 10750 10748 10745 10742 10737 10733 10728 10723 10719 10716 10712 10706 10701 10697 10691 10686 10681 10677 10673 10668 10664 10660 10656 10651 10645 10639 10635 10631 10625 10618 10613 10608 10604 10600 10597 10594 10590 10585 10581 10578 10576 10574 10571 10568 10568 10570 10571 10572 10573 10576 10579 10586 10596 10603 10604 10608 10614 10616 10616 10623 10628 10630 10634 10642 10650 10659 10667 10674
10799 10797 10795 10791 10786 10781 10778 10774 10770 10766 10762 10759 10757 10753 10749 10746 10744 10742 10740 10737 10733 10729 10725 10720 10716 10711 10707 10703 10697 10691 10687 10682 10676 10671 10666 10662 10657 10653 10649 10646 10642 10635 10629 10625 10620 10614 10609 10603 10598 10593 10589 10585 10582 10578 10574 10570 10568 10566 10564 10562 10559 10559 10561 10563 10564 10566 10566 10570 10579 10589 10594 10596 10597 10601 10605 10610 10615 10618 10620 10625 10633 10642 10650 10656 10663